DELTA 1 DEB, 10746

Orbit data source: Space-Track

DELTA 1 DEB, 10746 is space debris in SSO originally from a launch on Thu, 29 Jul 1976 UTC launched from the Air Force Western Test Range (AFWTR). Debris objects in space refer to the collection of defunct objects orbiting the Earth. Examples of debris include non-operational satellites, rocket bodies, and fragments generated from explosions, collisions, or faulty payload assembly.

Loading next visibility...
Identifier
10746, 1976-077AT
Orbit
SSO
Country
Flag of USUS
Related business
Manufacturer
Unknown
Mission
Spacecraft
Bus & Motor
Unknown
Mass
Unknown
Launch date (UTC)
1976-07-29 (50 years ago)
Launch vehicle
Unknown
Launch site
Air Force Western Test Range (AFWTR)
Object type
Payload
Rocket body
Debris
Shape & HBR
Unknown shape, 1.1 m
Radar Cross Section
Small (<0.1 m²)

Expand to show TLE details & history
Last TLE update: 20 hours ago

TLE from 20 hours ago
0 DELTA 1 DEB
1 10746U 76077AT  26104.05614106  .00001189  00000-0  24412-2 0  9995
2 10746 101.9064 319.7975 0275388  87.9980  64.1554 13.22373175344646
Epoch: 2026-04-14T01:20Z
TLE epoch observation values (Epoch: 2026-04-14T01:20:50.587Z)
Latitude
24.41991°
Longitude
-77.1859°
Altitude
1,092.42 km
Speed
7.35 km/s
True Right ascension
09h 41m 03s
True Declination
24° 17' 47"
Sunlit
Object was in daylight at epoch
Visualization orbit readout
Latitude
Unknown
Longitude
Unknown
Altitude
Unknown
Speed
Unknown
Apparent Right ascension
Unknown
Apparent Declination
Unknown
Sunlit
N/A
Visualization observer readout
Local Sidereal Time
03:36:29
Azimuth
Unknown
Elevation
Unknown
Doppler factor
Unknown
Orbital elements
Apogee altitude
1,381.081 km
Perigee altitude
965.176 km
Semi-major axis
7,551.265 km
Eccentricity
0.02754
Inclination
101.9064°
RAAN
319.7975°
Arg. of periapsis
87.998°
True anomaly
67.0375°
Mean anomaly
64.1554°
Eccentric anomaly
65.59224°
Mean motion
3.3076 °/min
Orbital period
108.84 mins
BSTAR
0.0024412
Loading maneuver chart data...
Computing Atmospheric mass density...
Loading historical data...
Loading historical data...
Loading historical data...
Loading historical data...
Loading historical data...
Loading historical data...
Loading historical data...

Documentation

Showing up to 5 results
|